Location: Unspecified
(49.2170°N, 0.0000°E)
Time: 02:05:46
(UTC+00:00)

Transit 2A - Pass Details

Date: 21 June 2019
Orbit: 600 x 959 km, 66.7° (Epoch: 14 October)

Event Time Altitude Azimuth Distance (km) Brightness Sun altitude
Rises 07:58:35 0° 324° (NW) 3,520 9.1 36.4°
Reaches altitude 10° 08:01:21 10° 332° (NNW) 2,528 8.5 36.9°
Maximum altitude 08:06:52 42° 42° (NE) 1,153 7.8 37.8°
Drops below altitude 10° 08:11:51 10° 113° (ESE) 2,285 9.6 38.6°
Sets 08:14:14 0° 121° (ESE) 3,148 10.0 39.0°
